Regional Weather Roundup
Issued by NWS State College, PA

Home | Current Version | Previous Version | Graphics & Text | Print | Product List | Glossary Off
Versions: 1 2 3 4 5 6 7 8 9 10 11 12 13 14 15 16 17 18 19 20 21 22 23 24 25 26 27 28 29 30 31 32 33 34 35 36 37 38 39 40 41 42 43 44 45 46 47 48 49 50

000
ASUS41 KCTP 231003
RWRCTP

REGIONAL WEATHER ROUNDUP
NATIONAL WEATHER SERVICE STATE COLLEGE PA
600 AM EDT SAT MAY 23 2015

Note: "fair" indicates few or no clouds below 12,000 feet with no
significant weather and/or obstructions to visibility.

* = STATION THAT DOES NOT REPORT PRECIPITATION /E.G. RAIN...SNOW...ETC/
    THUNDER OR FOG.

PAZ002>004-007>009-013>016-020>023-029>032-231100-
WESTERN PENNSYLVANIA

CITY           SKY/WX    TMP DP  RH WIND       PRES   REMARKS
ERIE           CLEAR     36  30  79 S5        30.38R
MEADVILLE      CLEAR     36  29  75 S5        30.37R
FRANKLIN*      CLEAR     28  23  80 CALM      30.39R
NEW CASTLE     FAIR      32  32 100 CALM      30.40R
BEAVER COUNTY  NOT AVBL
BUTLER*        CLEAR     34  28  80 CALM      30.40R
PITTSBURGH INT PTCLDY    38  32  79 CALM      30.38R
PITTSBURGH     CLEAR     42  28  57 CALM      30.38R
INDIANA*       CLEAR     32  32 100 CALM      30.42R
LATROBE        CLEAR     32  32 100 CALM      30.41R
WASHINGTON CO* CLEAR     32  30  93 CALM      30.40R
$$

PAZ004>006-010>012-017>019-024>028-033>037-041-042-045-046-049>053-231100-
CENTRAL PENNSYLVANIA

CITY           SKY/WX    TMP DP  RH WIND       PRES   REMARKS
BRADFORD       CLEAR     26  21  81 CALM      30.35R
DUBOIS         CLEAR     33  25  72 CALM      30.36R
CLEARFIELD     CLEAR     31  24  75 CALM      30.38R
JOHNSTOWN      CLEAR     39  18  42 W6        30.35R
ALTOONA        CLEAR     35  27  72 CALM      30.38R
STATE COLLEGE  CLEAR     39  23  52 CALM      30.38R
WILLIAMSPORT   CLEAR     39  30  70 CALM      30.38R
SELINSGROVE    CLEAR     37  31  78 CALM      30.39R
FT INDIANTOWN  CLEAR     46  24  41 VRB1      30.37R
CAPITAL CITY   CLEAR     44  26  49 W5        30.37R
HARRISBURG     PTCLDY    48  22  35 NW5       30.36R
YORK           CLEAR     38  32  79 CALM      30.37R
$$

PAZ038>040-043-044-047-048-054-055-060>062-067>071-231100-
EASTERN PENNSYLVANIA

CITY           SKY/WX    TMP DP  RH WIND       PRES   REMARKS
SCRANTON       CLEAR     41  27  57 NW7       30.36R
MOUNT POCONO   CLEAR     34  25  69 NW9       30.31R
ALLENTOWN      CLEAR     44  27  51 N5        30.36R
QUAKERTOWN*    SUNNY     43  28  56 N3        30.36R
READING        CLEAR     45  28  51 N5        30.36R
LANCASTER      CLEAR     39  30  70 NW7       30.36R
COATESVILLE    SUNNY     45  27  49 NW6       30.35R
POTTSTOWN      CLEAR     45  30  55 N8        30.36R
BLUE BELL      CLEAR     46  30  53 N3        30.34R
DOYLESTOWN     CLEAR     44  32  62 N7        30.34R
WILLOW GROVE   NOT AVBL
NORTH PHILA    CLEAR     50  25  37 N14       30.35R
PHILADELPHIA   PTCLDY    51  28  41 N9        30.35R
$$


USA.gov is the U.S. government's official web portal to all federal, state and local government web resources and services.